This demonstration page uses our WeatherBlox Daily Observations layout. Learn more.

Left ArrowRight Arrow

Hourly Observations for September 6, 2018

Temp ( °F °C ) Dew Point ( °F °C ) Humidity (%) Winds ( mph kmh ) Pressure ( in mb ) Visibility ( mi km ) Precip ( " mm )
12:15 am 00:15 Clear 73 23 73 23 100 100 Calm 30.21 1023 10 16 0.00 0.00
12:35 am 00:35 Clear 73 23 73 23 100 100 Calm 30.21 1023 10 16 0.00 0.00
12:55 am 00:55 Clear 73 23 73 23 100 100 Calm 30.21 1023 10 16 0.00 0.00
1:15 am 01:15 Clear 73 23 73 23 100 100 Calm 30.21 1023 10 16 0.00 0.00
1:35 am 01:35 Clear 72 22 72 22 100 100 Calm 30.21 1023 10 16 0.00 0.00
1:55 am 01:55 Clear 70 21 70 21 100 100 Calm 30.21 1023 7 11 0.00 0.00
2:15 am 02:15 Clear 72 22 72 22 100 100 SW 3 6 30.21 1023 10 16 0.00 0.00
2:35 am 02:35 Clear 70 21 70 21 100 100 WSW 3 6 30.21 1023 7 11 0.00 0.00
2:55 am 02:55 Clear 70 21 70 21 100 100 Calm 30.21 1023 10 16 0.00 0.00
3:15 am 03:15 Clear 70 21 70 21 100 100 SW 3 6 30.21 1023 10 16 0.00 0.00
3:35 am 03:35 Clear 70 21 70 21 100 100 WSW 3 6 30.21 1023 7 11 0.00 0.00
3:55 am 03:55 Clear 68 20 68 20 100 100 Calm 30.18 1022 7 11 0.00 0.00
4:15 am 04:15 Clear with Mist and Fog 68 20 68 20 100 100 W 3 6 30.18 1022 5 8 0.00 0.00
4:35 am 04:35 Clear 68 20 68 20 100 100 W 3 6 30.18 1022 7 11 0.00 0.00
4:55 am 04:55 Clear 68 20 68 20 100 100 Calm 30.18 1022 10 16 0.00 0.00
5:15 am 05:15 Clear 68 20 68 20 100 100 SW 3 6 30.18 1022 10 16 0.00 0.00
5:35 am 05:35 Clear 70 21 70 21 100 100 SSW 3 6 30.18 1022 10 16 0.00 0.00
5:55 am 05:55 Clear 70 21 70 21 100 100 SW 3 6 30.18 1022 10 16 0.00 0.00
6:15 am 06:15 Clear 70 21 70 21 100 100 WSW 3 6 30.18 1022 10 16 0.00 0.00
6:35 am 06:35 Clear 70 21 70 21 100 100 Calm 30.18 1022 10 16 0.00 0.00
6:55 am 06:55 Sunny 70 21 70 21 100 100 Calm 30.21 1023 10 16 0.00 0.00
7:15 am 07:15 Sunny 70 21 70 21 100 100 Calm 30.21 1023 10 16 0.00 0.00
7:35 am 07:35 Sunny 70 21 70 21 100 100 Calm 30.21 1023 10 16 0.00 0.00
7:55 am 07:55 Sunny 72 22 72 22 100 100 Calm 30.21 1023 10 16 0.00 0.00
8:15 am 08:15 Sunny 73 23 72 22 94 94 Calm 30.21 1023 10 16 0.00 0.00
8:35 am 08:35 Sunny 75 24 72 22 89 89 Calm 30.21 1023 10 16 0.00 0.00
8:55 am 08:55 Sunny 77 25 72 22 83 83 Calm 30.21 1023 10 16 0.00 0.00
9:15 am 09:15 Sunny 79 26 72 22 79 79 S 3 6 30.21 1023 10 16 0.00 0.00
9:35 am 09:35 Sunny 81 27 73 23 79 79 Calm 30.21 1023 10 16 0.00 0.00
9:55 am 09:55 Sunny 82 28 72 22 70 70 Calm 30.21 1023 10 16 0.00 0.00
10:15 am 10:15 Sunny 82 28 73 23 74 74 Calm 30.21 1023 10 16 0.00 0.00
10:35 am 10:35 Sunny 84 29 73 23 70 70 WSW 3 6 30.21 1023 10 16 0.00 0.00
10:55 am 10:55 Partly Cloudy 86 30 73 23 66 66 WSW 5 7 30.21 1023 10 16 0.00 0.00
11:15 am 11:15 Mostly Cloudy 88 31 77 25 70 70 Calm 30.21 1023 7 11 0.00 0.00
11:30 am 11:30 Mostly Cloudy 88 31 73 23 62 62 NW 3 6 30.18 1022 10 16 0.00 0.00
11:55 am 11:55 Partly Cloudy 88 31 75 24 66 66 Calm 30.18 1022 10 16 0.00 0.00
12:15 pm 12:15 Sunny 90 32 73 23 59 59 Calm 30.18 1022 10 16 0.00 0.00
12:35 pm 12:35 Sunny 90 32 75 24 63 63 NNE 5 7 30.18 1022 10 16 0.00 0.00
12:50 pm 12:50 Sunny 90 32 75 24 63 63 WNW 3 6 30.18 1022 10 16 0.00 0.00
1:15 pm 13:15 Sunny 90 32 75 24 63 63 Calm 30.12 1020 10 16 0.00 0.00
1:35 pm 13:35 Sunny 91 33 73 23 56 56 Calm 30.12 1020 10 16 0.00 0.00
1:55 pm 13:55 Mostly Cloudy 93 34 75 24 56 56 W 6 9 30.12 1020 10 16 0.00 0.00
2:15 pm 14:15 Mostly Cloudy 95 35 75 24 53 53 Calm 30.12 1020 10 16 0.00 0.00
2:35 pm 14:35 Mostly Cloudy 95 35 73 23 50 50 Calm 30.09 1019 10 16 0.00 0.00
2:55 pm 14:55 Cloudy 91 33 72 22 52 52 SSE 3 6 30.09 1019 10 16 0.00 0.00
3:15 pm 15:15 Mostly Cloudy 95 35 73 23 50 50 WSW 3 6 30.09 1019 10 16 0.00 0.00
3:35 pm 15:35 Partly Cloudy 95 35 72 22 47 47 S 5 7 30.09 1019 10 16 0.00 0.00
3:55 pm 15:55 Partly Cloudy 95 35 73 23 50 50 SSW 3 6 30.06 1018 10 16 0.00 0.00
4:15 pm 16:15 Sunny 95 35 72 22 47 47 SW 5 7 30.09 1019 10 16 0.00 0.00
4:35 pm 16:35 Sunny 95 35 72 22 47 47 SSW 5 7 30.06 1018 10 16 0.00 0.00
4:55 pm 16:55 Sunny 95 35 73 23 50 50 W 3 6 30.06 1018 10 16 0.00 0.00
5:15 pm 17:15 Sunny 95 35 72 22 47 47 W 5 7 30.09 1019 10 16 0.00 0.00
5:35 pm 17:35 Sunny 93 34 73 23 53 53 W 5 7 30.06 1018 10 16 0.00 0.00
5:55 pm 17:55 Sunny 91 33 73 23 56 56 W 3 6 30.06 1018 10 16 0.00 0.00
6:15 pm 18:15 Sunny 91 33 73 23 56 56 Calm 30.06 1018 10 16 0.00 0.00
6:35 pm 18:35 Sunny 91 33 72 22 52 52 Calm 30.06 1018 10 16 0.00 0.00
6:55 pm 18:55 Partly Cloudy with Nearby Thunderstorms 86 30 72 22 62 62 N 10 17 30.12 1020 10 16 0.00 0.00
7:15 pm 19:15 Mostly Cloudy with Nearby Thunderstorms 82 28 72 22 70 70 N 10 17 30.12 1020 10 16 0.00 0.00
7:35 pm 19:35 Mostly Cloudy 82 28 73 23 74 74 NNE 8 13 30.12 1020 10 16 0.00 0.00
7:55 pm 19:55 Partly Cloudy 81 27 72 22 74 74 N 7 11 30.12 1020 10 16 0.00 0.00
8:15 pm 20:15 Partly Cloudy 81 27 72 22 74 74 NNE 7 11 30.15 1021 10 16 0.00 0.00
8:35 pm 20:35 Mostly Cloudy 81 27 72 22 74 74 N 5 7 30.15 1021 10 16 0.00 0.00
8:55 pm 20:55 Mostly Cloudy 81 27 72 22 74 74 Calm 30.15 1021 10 16 0.00 0.00
9:10 pm 21:10 Mostly Cloudy 79 26 72 22 79 79 Calm 30.15 1021 10 16 0.00 0.00
9:35 pm 21:35 Partly Cloudy 79 26 72 22 79 79 NNE 3 6 30.18 1022 10 16 0.00 0.00
9:55 pm 21:55 Partly Cloudy 79 26 72 22 79 79 N 5 7 30.18 1022 10 16 0.00 0.00
10:15 pm 22:15 Partly Cloudy 79 26 72 22 79 79 Calm 30.18 1022 10 16 0.00 0.00
10:35 pm 22:35 Partly Cloudy 79 26 72 22 79 79 N 6 9 30.18 1022 10 16 0.00 0.00
10:55 pm 22:55 Partly Cloudy 77 25 72 22 83 83 N 3 6 30.18 1022 10 16 0.00 0.00
11:15 pm 23:15 Partly Cloudy 77 25 72 22 83 83 N 6 9 30.18 1022 10 16 0.00 0.00
11:35 pm 23:35 Partly Cloudy 77 25 72 22 83 83 NNW 6 9 30.18 1022 10 16 0.00 0.00
11:55 pm 23:55 Mostly Cloudy 77 25 72 22 83 83 N 6 9 30.18 1022 10 16 0.00 0.00

Powered by AerisWeather